User: anonymous   Login
Location: Mentone
(34.5413°N, 85.5351°W)
Time: 00:27:31
(UTC-05:00)
Language:

A-11 Canister half - Orbit

View from above orbital plane
View from above orbital plane
View from above satellite
View from above satellite

Ground track
Ground track

The orbit data is extracted from the following two-line orbital elements,

1    53U 60009E   17175.62726407 -.00000086 +00000-0 +00000-0 0  9993
2    53 047.2778 016.6050 0099634 103.3863 257.8055 12.17201987535944
Epoch (UTC): 24 June 2017 15:03:15
Eccentricity: 0.0099634
inclination: 47.2778°
perigee height: 1525 km
apogee height: 1684 km
right ascension of ascending node: 16.6050°
argument of perigee: 103.3863°
revolutions per day: 12.17201987
mean anomaly at epoch: 257.8055°
orbit number at epoch: 53594

The dashed part of the orbit path shows where the satellite is in the earth's shadow,  

DLR